This is the latest recevied weather packets stored in our database for station/object N9BSW. If no packets are shown the sender has not sent any weather packets the latest 10 day(s).
| Time | Temp. | Humidity | Pressure | Rain* | Wind** | Luminosity | Snow |
|---|---|---|---|---|---|---|---|
| 1777896163 | 12.22° C | 74% | 1007.9 hPa | 0 mm | - | 75 W/m² | - |
| 1777895861 | 12.22° C | 75% | 1007.7 hPa | 0 mm | - | 71 W/m² | - |
| 1777895558 | 12.22° C | 75% | 1008 hPa | 0 mm | - | 61 W/m² | - |
| 1777895255 | 11.67° C | 76% | 1008.2 hPa | 0 mm | - | 51 W/m² | - |
| 1777894953 | 11.67° C | 77% | 1007.9 hPa | 0 mm | - | 46 W/m² | - |
| 1777894650 | 11.67° C | 76% | 1008 hPa | 0 mm | - | 44 W/m² | - |
| 1777894347 | 11.67° C | 76% | 1008 hPa | 0 mm | - | 38 W/m² | - |
| 1777894044 | 11.67° C | 76% | 1008.3 hPa | 0 mm | - | 28 W/m² | - |
| 1777893740 | 11.67° C | 75% | 1007.8 hPa | 0 mm | - | 22 W/m² | - |
| 1777893437 | 11.67° C | 74% | 1008 hPa | 0 mm | - | 18 W/m² | - |
| 1777893134 | 11.67° C | 74% | 1007.8 hPa | 0 mm | - | 14 W/m² | - |
| 1777892830 | 12.22° C | 74% | 1007.8 hPa | 0 mm | - | 11 W/m² | - |
| 1777892527 | 12.22° C | 73% | 1007.7 hPa | 0 mm | - | 9 W/m² | - |
| 1777892222 | 12.22° C | 72% | 1007.8 hPa | 0 mm | - | 7 W/m² | - |
| 1777891919 | 12.22° C | 72% | 1007.7 hPa | 0 mm | - | 6 W/m² | - |
| 1777891617 | 12.78° C | 71% | 1008 hPa | 0 mm | - | 4 W/m² | - |
| 1777891313 | 12.78° C | 69% | 1008.1 hPa | 0 mm | - | 3 W/m² | - |
| 1777891008 | 12.78° C | 69% | 1008.1 hPa | 0 mm | - | 1 W/m² | - |
| 1777890708 | 12.78° C | 68% | 1008.4 hPa | 0 mm | - | 0 W/m² | - |
| 1777890404 | 12.78° C | 68% | 1008.3 hPa | 0 mm | - | 0 W/m² | - |
| 1777890099 | 12.78° C | 68% | 1008.4 hPa | 0 mm | - | 0 W/m² | - |
| 1777889797 | 12.78° C | 68% | 1008.3 hPa | 0 mm | - | 0 W/m² | - |
| 1777889495 | 12.78° C | 67% | 1008.2 hPa | 0 mm | - | 0 W/m² | - |
| 1777889192 | 12.78° C | 67% | 1008.2 hPa | 0 mm | - | 0 W/m² | - |
| 1777888891 | 12.78° C | 66% | 1008.4 hPa | 0 mm | - | 0 W/m² | - |
* Rain latest hour (hover to see other rain measurements)
** Current wind speed in m/s (hover to see current wind gust speed)